Regional Weather Roundup
Issued by NWS Goodland, KS

Home | Current Version | Previous Version | Graphics & Text | Print | Product List | Glossary On
Versions: 1 2 3 4 5 6 7 8 9 10 11 12 13 14 15 16 17 18 19 20 21 22 23 24 25 26 27 28 29 30 31 32 33 34 35 36 37 38 39 40 41 42 43 44 45 46 47 48 49 50
972
ASUS43 KGLD 261659
RWRGLD

GOODLAND FORECAST AREA HOURLY WEATHER ROUNDUP
NATIONAL WEATHER SERVICE GOODLAND KS
1100 AM MDT WED JUL 26 2017

...OFFICIAL OBSERVATIONS...

CITY           SKY/WX    TMP DP  RH WIND       PRES   REMARKS
GOODLAND KS    CLOUDY    75  66  73 N20G29    30.10R
HILL CITY KS   CLOUDY    86  69  56 SW5       29.94R
IMPERIAL NEB   CLOUDY    77  64  64 N15       30.09R
MCCOOK NEB     CLOUDY    77  69  76 N18       30.01R
AKRON CO       MOSUNNY   79  60  52 N15       30.20S
BURLINGTON CO  SUNNY     80  66  62 N20G28    30.14R
LIMON CO       MOSUNNY   75  62  64 NW14      30.24S
$$

...UNOFFICIAL OBSERVATIONS...

CITY           SKY/WX    TMP DP  RH WIND       PRES   REMARKS
LENORA KS        N/A     87  32  14 MISG        N/A
NORTON KS      MOSUNNY   86  64  48 NE3       29.95R
SHARON SPRINGS   N/A     78  69  73 N15G26      N/A
TRENTON NEB      N/A     73  32  22 N12         N/A
KIT CARSON CO    N/A     81  64  55 MISG        N/A
YUMA CO        PTSUNNY   77  54  44 N16       30.16S
$$




USA.gov is the U.S. government's official web portal to all federal, state and local government web resources and services.